KC3LBR Weather Reports


time (UTC)temp
C
wind
direction
speed
KPH
gust
KPH
rain 1hr
cm
rain 24hr
cm
rain mn
cm
humidity
%
barometer
mb
20260505180001 26 0 106.2 127.1 0.00 0.00 0.00
20260505175402 27 0 106.2 130.4 0.00 0.00 0.00
20260505174802 26 0 106.2 127.1 0.00 0.00 0.00
20260505174202 27 0 106.2 130.4 0.00 0.00 0.00
20260505173602 26 0 106.2 128.7 0.00 0.00 0.00
20260505173002 26 0 106.2 128.7 0.00 0.00 0.00
20260505172402 26 0 106.2 128.7 0.00 0.00 0.00
20260505171802 27 0 106.2 130.4 0.00 0.00 0.00
20260505171202 26 0 104.6 128.7 0.00 0.00 0.00
20260505170602 27 0 104.6 132.0 0.00 0.00 0.00
20260505170002 27 0 104.6 132.0 0.00 0.00 0.00
20260505165401 26 0 104.6 128.7 0.00 0.00 0.00
20260505164802 25 0 104.6 125.5 0.00 0.00 0.00
20260505164201 27 0 104.6 130.4 0.00 0.00 0.00
20260505163602 26 0 104.6 128.7 0.00 0.00 0.00
20260505163001 26 0 104.6 128.7 0.00 0.00 0.00
20260505162402 26 0 104.6 128.7 0.00 0.00 0.00
20260505161802 25 0 104.6 125.5 0.00 0.00 0.00
20260505161202 26 0 103.0 127.1 0.00 0.00 0.00
20260505160602 25 0 103.0 125.5 0.00 0.00 0.00
20260505153003 26 0 103.0 128.7 0.00 0.00 0.00
20260505152403 26 0 103.0 127.1 0.00 0.00 0.00
20260505151802 26 0 103.0 128.7 0.00 0.00 0.00
20260505151202 24 0 103.0 122.3 0.00 0.00 0.00
20260505150602 24 0 101.4 122.3 0.00 0.00 0.00
20260505140602 22 0 101.4 115.9 0.00 0.00 0.00
20260505124801 18 0 99.8 104.6 0.00 0.00 0.00
20260505124202 17 0 99.8 103.0 0.00 0.00 0.00
20260505123602 17 0 99.8 103.0 0.00 0.00 0.00
20260505123001 17 0 99.8 101.4 0.00 0.00 0.00
20260505122402 17 0 99.8 101.4 0.00 0.00 0.00
20260505121802 16 0 99.8 99.8 0.00 0.00 0.00
20260505121201 16 0 99.8 99.8 0.00 0.00 0.00
20260505120602 16 0 99.8 99.8 0.00 0.00 0.00
20260505120002 16 0 99.8 98.2 0.00 0.00 0.00
20260505115402 16 0 99.8 98.2 0.00 0.00 0.00
20260505114802 15 0 99.8 96.6 0.00 0.00 0.00
20260505114202 15 0 99.8 96.6 0.00 0.00 0.00
20260505113601 15 0 99.8 95.0 0.00 0.00 0.00
20260505113002 15 0 98.2 95.0 0.00 0.00 0.00
20260505112402 15 0 99.8 95.0 0.00 0.00 0.00
20260505111802 14 0 98.2 93.3 0.00 0.00 0.00
20260505111201 13 0 99.8 90.1 0.00 0.00 0.00
20260505110602 12 0 99.8 88.5 0.00 0.00 0.00
20260505101803 10 0 99.8 82.1 0.00 0.00 0.00
20260505101201 10 0 93.3 82.1 0.00 0.00 0.00
20260505100602 10 0 95.0 82.1 0.00 0.00 0.00
20260505100002 11 0 95.0 83.7 0.00 0.00 0.00
20260505095403 11 0 95.0 83.7 0.00 0.00 0.00
20260505094801 11 0 95.0 83.7 0.00 0.00 0.00
20260505094201 11 0 95.0 83.7 0.00 0.00 0.00
20260505093002 11 0 95.0 85.3 0.00 0.00 0.00
20260505092402 12 0 95.0 86.9 0.00 0.00 0.00
20260505091802 12 0 95.0 86.9 0.00 0.00 0.00
20260505091202 12 0 95.0 88.5 0.00 0.00 0.00
20260505090601 12 0 95.0 86.9 0.00 0.00 0.00
20260505090002 12 0 96.6 86.9 0.00 0.00 0.00
20260505085401 13 0 96.6 90.1 0.00 0.00 0.00
20260505084802 13 0 96.6 90.1 0.00 0.00 0.00
20260505084201 13 0 96.6 90.1 0.00 0.00 0.00
20260505083602 13 0 96.6 90.1 0.00 0.00 0.00
20260505083003 13 0 96.6 90.1 0.00 0.00 0.00
20260505082402 13 0 96.6 90.1 0.00 0.00 0.00
20260505081802 13 0 96.6 90.1 0.00 0.00 0.00
20260505081201 13 0 96.6 90.1 0.00 0.00 0.00
20260505080602 13 0 96.6 91.7 0.00 0.00 0.00
20260505080002 13 0 96.6 91.7 0.00 0.00 0.00
20260505075401 14 0 96.6 93.3 0.00 0.00 0.00
20260505074801 14 0 96.6 93.3 0.00 0.00 0.00
20260505073602 13 0 96.6 91.7 0.00 0.00 0.00
20260505073001 13 0 96.6 90.1 0.00 0.00 0.00
20260505072402 13 0 96.6 90.1 0.00 0.00 0.00
20260505071801 13 0 96.6 90.1 0.00 0.00 0.00
20260505071202 13 0 96.6 90.1 0.00 0.00 0.00
20260505070603 13 0 96.6 90.1 0.00 0.00 0.00
20260505070001 13 0 96.6 90.1 0.00 0.00 0.00
20260505065402 13 0 96.6 90.1 0.00 0.00 0.00
20260505064801 13 0 96.6 90.1 0.00 0.00 0.00
20260505064202 13 0 98.2 91.7 0.00 0.00 0.00
20260505063601 13 0 98.2 91.7 0.00 0.00 0.00
20260505063002 13 0 98.2 91.7 0.00 0.00 0.00
20260505062402 13 0 98.2 90.1 0.00 0.00 0.00
20260505061802 13 0 98.2 90.1 0.00 0.00 0.00
20260505061202 13 0 98.2 90.1 0.00 0.00 0.00
20260505060602 13 0 98.2 90.1 0.00 0.00 0.00
20260505060001 13 0 98.2 91.7 0.00 0.00 0.00
20260505055401 13 0 98.2 91.7 0.00 0.00 0.00
20260505054802 14 0 98.2 93.3 0.00 0.00 0.00
20260505054201 14 0 98.2 93.3 0.00 0.00 0.00
20260505053602 14 0 98.2 93.3 0.00 0.00 0.00
20260505053002 15 0 99.8 95.0 0.00 0.00 0.00
20260505052403 15 0 98.2 95.0 0.00 0.00 0.00
20260505051801 14 0 98.2 93.3 0.00 0.00 0.00
20260505051202 15 0 98.2 95.0 0.00 0.00 0.00
20260505050602 15 0 98.2 95.0 0.00 0.00 0.00
20260505041204 15 0 99.8 95.0 0.00 0.00 0.00
20260505040602 15 0 99.8 95.0 0.00 0.00 0.00
20260505040002 15 0 99.8 96.6 0.00 0.00 0.00
20260505035402 15 0 99.8 96.6 0.00 0.00 0.00
20260505034802 15 0 99.8 96.6 0.00 0.00 0.00
20260505034203 15 0 99.8 96.6 0.00 0.00 0.00
20260505033602 15 0 99.8 96.6 0.00 0.00 0.00
20260505033002 15 0 99.8 96.6 0.00 0.00 0.00
20260505032402 15 0 99.8 96.6 0.00 0.00 0.00
20260505031802 15 0 99.8 96.6 0.00 0.00 0.00
20260505031201 15 0 99.8 96.6 0.00 0.00 0.00
20260505030601 15 0 99.8 96.6 0.00 0.00 0.00
20260505030002 15 0 99.8 96.6 0.00 0.00 0.00
20260505025401 15 0 99.8 96.6 0.00 0.00 0.00
20260505024802 15 0 99.8 96.6 0.00 0.00 0.00
20260505024201 15 0 99.8 96.6 0.00 0.00 0.00
20260505023601 15 0 99.8 96.6 0.00 0.00 0.00
20260505023002 15 0 99.8 96.6 0.00 0.00 0.00
20260505022402 15 0 99.8 96.6 0.00 0.00 0.00
20260505021802 15 0 99.8 96.6 0.00 0.00 0.00
20260505021202 16 0 99.8 98.2 0.00 0.00 0.00
20260505020602 16 0 99.8 98.2 0.00 0.00 0.00
20260505020001 16 0 99.8 98.2 0.00 0.00 0.00
20260505015402 16 0 101.4 98.2 0.00 0.00 0.00
20260505014802 15 0 101.4 96.6 0.00 0.00 0.00
20260505014202 16 0 101.4 98.2 0.00 0.00 0.00
20260505013601 16 0 101.4 98.2 0.00 0.00 0.00
20260505013002 16 0 101.4 98.2 0.00 0.00 0.00
20260505012402 16 0 101.4 98.2 0.00 0.00 0.00
20260505011802 16 0 101.4 98.2 0.00 0.00 0.00
20260505011202 16 0 101.4 98.2 0.00 0.00 0.00
20260505010601 16 0 101.4 99.8 0.00 0.00 0.00
20260505010002 16 0 103.0 99.8 0.00 0.00 0.00
20260505005402 16 0 103.0 99.8 0.00 0.00 0.00
20260505004802 16 0 103.0 99.8 0.00 0.00 0.00
20260505004201 16 0 103.0 99.8 0.00 0.00 0.00
20260505003602 17 0 101.4 101.4 0.00 0.00 0.00
20260505003002 17 0 103.0 101.4 0.00 0.00 0.00
20260505002401 17 0 103.0 101.4 0.00 0.00 0.00
20260505001801 17 0 103.0 103.0 0.00 0.00 0.00
20260505001203 17 0 103.0 103.0 0.00 0.00 0.00
20260505000602 17 0 103.0 103.0 0.00 0.00 0.00
20260505000001 17 0 103.0 103.0 0.00 0.00 0.00
20260504235403 17 0 103.0 103.0 0.00 0.00 0.00
20260504234802 17 0 103.0 103.0 0.00 0.00 0.00
20260504234202 17 0 103.0 103.0 0.00 0.00 0.00
20260504233602 18 0 103.0 104.6 0.00 0.00 0.00
20260504233001 18 0 103.0 104.6 0.00 0.00 0.00
20260504232402 18 0 103.0 106.2 0.00 0.00 0.00
20260504231802 18 0 103.0 106.2 0.00 0.00 0.00
20260504231202 18 0 103.0 106.2 0.00 0.00 0.00
20260504230602 18 0 103.0 106.2 0.00 0.00 0.00
20260504230002 18 0 103.0 106.2 0.00 0.00 0.00
20260504225402 19 0 103.0 107.8 0.00 0.00 0.00
20260504224802 18 0 103.0 106.2 0.00 0.00 0.00
20260504224202 19 0 103.0 107.8 0.00 0.00 0.00
20260504223601 19 0 103.0 107.8 0.00 0.00 0.00
20260504223002 19 0 103.0 107.8 0.00 0.00 0.00
20260504222402 19 0 103.0 107.8 0.00 0.00 0.00
20260504221802 19 0 103.0 107.8 0.00 0.00 0.00
20260504221202 20 0 103.0 109.4 0.00 0.00 0.00
20260504220602 20 0 103.0 109.4 0.00 0.00 0.00
20260504220001 20 0 103.0 109.4 0.00 0.00 0.00
20260504215402 19 0 103.0 107.8 0.00 0.00 0.00
20260504214802 20 0 103.0 109.4 0.00 0.00 0.00
20260504214202 20 0 103.0 109.4 0.00 0.00 0.00
20260504213602 20 0 103.0 109.4 0.00 0.00 0.00
20260504213002 20 0 103.0 109.4 0.00 0.00 0.00
20260504212402 20 0 103.0 109.4 0.00 0.00 0.00
20260504211802 20 0 103.0 109.4 0.00 0.00 0.00
20260504211202 20 0 103.0 109.4 0.00 0.00 0.00
20260504210602 20 0 103.0 109.4 0.00 0.00 0.00
20260504210003 20 0 103.0 109.4 0.00 0.00 0.00
20260504205402 20 0 103.0 109.4 0.00 0.00 0.00
20260504204802 20 0 103.0 109.4 0.00 0.00 0.00
20260504204201 20 0 103.0 109.4 0.00 0.00 0.00
20260504203601 20 0 103.0 109.4 0.00 0.00 0.00
20260504203002 21 0 103.0 112.7 0.00 0.00 0.00
20260504202401 21 0 103.0 112.7 0.00 0.00 0.00
20260504201803 20 0 103.0 109.4 0.00 0.00 0.00
20260504201203 20 0 103.0 111.0 0.00 0.00 0.00
20260504200601 21 0 103.0 112.7 0.00 0.00 0.00
20260504200002 20 0 103.0 111.0 0.00 0.00 0.00
20260504195402 20 0 103.0 111.0 0.00 0.00 0.00
20260504194803 20 0 103.0 109.4 0.00 0.00 0.00
20260504194201 20 0 103.0 111.0 0.00 0.00 0.00
20260504193602 20 0 103.0 111.0 0.00 0.00 0.00
20260504193002 20 0 101.4 109.4 0.00 0.00 0.00
20260504192402 22 0 101.4 115.9 0.00 0.00 0.00
20260504191802 21 0 101.4 114.3 0.00 0.00 0.00
20260504191202 21 0 101.4 112.7 0.00 0.00 0.00
20260504190602 22 0 101.4 117.5 0.00 0.00 0.00
20260504190002 22 0 101.4 117.5 0.00 0.00 0.00
20260504185401 22 0 101.4 117.5 0.00 0.00 0.00
20260504184802 22 0 101.4 115.9 0.00 0.00 0.00
20260504184202 21 0 101.4 112.7 0.00 0.00 0.00
20260504183602 21 0 101.4 112.7 0.00 0.00 0.00
20260504183002 20 0 101.4 109.4 0.00 0.00 0.00
20260504182404 22 0 101.4 115.9 0.00 0.00 0.00
20260504181802 22 0 101.4 115.9 0.00 0.00 0.00
20260504181202 21 0 99.8 112.7 0.00 0.00 0.00
20260504180602 21 0 99.8 112.7 0.00 0.00 0.00